This is the latest recevied weather packets stored in our database for station/object DH4SBM. If no packets are shown the sender has not sent any weather packets the latest 10 day(s).
| Time | Temp. | Humidity | Pressure | Rain* | Wind** | Luminosity | Snow |
|---|---|---|---|---|---|---|---|
| 1788489509 | 19.44° C | 69% | 1020.6 hPa | 0 mm | - | 0 W/m² | - |
| 1788488909 | 19.44° C | 68% | 1020.7 hPa | 0 mm | - | 0 W/m² | - |
| 1788488309 | 19.44° C | 69% | 1020.7 hPa | 0 mm | - | 0 W/m² | - |
| 1788485310 | 19.44° C | 68% | 1020.8 hPa | 0 mm | - | 0 W/m² | - |
| 1788484710 | 19.44° C | 68% | 1020.8 hPa | 0 mm | - | 0 W/m² | - |
| 1788482309 | 20° C | 65% | 1021 hPa | 0 mm | - | 0 W/m² | - |
| 1788481709 | 20.56° C | 65% | 1021 hPa | 0 mm | - | 0 W/m² | - |
| 1788481109 | 20.56° C | 65% | 1021.2 hPa | 0 mm | - | 0 W/m² | - |
| 1788480509 | 20.56° C | 65% | 1021.3 hPa | 0 mm | - | 0 W/m² | - |
| 1788478708 | 20.56° C | 64% | 1021.5 hPa | 0 mm | - | 0 W/m² | - |
| 1788474945 | 21.11° C | 62% | 1021.5 hPa | 0 mm | - | 0 W/m² | - |
| 1788474345 | 21.11° C | 62% | 1021.5 hPa | 0 mm | - | 0 W/m² | - |
| 1788471344 | 21.67° C | 60% | 1021.5 hPa | 0 mm | - | 0 W/m² | - |
| 1788470744 | 21.67° C | 60% | 1021.6 hPa | 0 mm | - | 0 W/m² | - |
| 1788470143 | 21.67° C | 60% | 1021.5 hPa | 0 mm | - | 0 W/m² | - |
| 1788468943 | 21.67° C | 60% | 1021.8 hPa | 0 mm | - | 0 W/m² | - |
| 1788467743 | 22.22° C | 59% | 1021.6 hPa | 0 mm | - | 0 W/m² | - |
| 1788467143 | 22.22° C | 59% | 1021.6 hPa | 0 mm | - | 0 W/m² | - |
| 1788465942 | 22.22° C | 59% | 1021.4 hPa | 0 mm | - | 0 W/m² | - |
| 1788465342 | 22.22° C | 59% | 1021.6 hPa | 0 mm | - | 0 W/m² | - |
| 1788464744 | 22.22° C | 59% | 1021.6 hPa | 0 mm | - | 0 W/m² | - |
| 1788464144 | 22.22° C | 58% | 1021.7 hPa | 0 mm | - | 0 W/m² | - |
| 1788463543 | 22.22° C | 58% | 1021.7 hPa | 0 mm | - | 0 W/m² | - |
| 1788450182 | 25° C | 47% | 1020.9 hPa | 0 mm | - | 109 W/m² | - |
| 1788447183 | 25.56° C | 48% | 1021.4 hPa | 0 mm | - | 139 W/m² | - |
* Rain latest hour (hover to see other rain measurements)
** Current wind speed in m/s (hover to see current wind gust speed)